Starlink 2701

operational
NORAD ID: 48656 Int'l Des: 2021-044 Owner: SPXS Country: US Constellation: starlink
LEOCIRCULARSTARLINK_TYPE

Über Starlink 2701

Beschreibung wird geladen...

Live-Position

3D-Globus wird geladen...

Nächste Überflüge

Höhenverlauf

Altitude vs Time

uPlot chart will show altitude changes over time

Zweizeiliger Elementsatz

1 48656U 21044U 25258.51271360 .00002112 00000-0 16062-3 0 9991
2 48656 53.0530 188.0176 0001555 86.5474 273.5693 15.06400813237306
Epoch: 15. Sept. 2025 • Age: 13 hours

Aktueller Status

Höhe 552.3 km
Geschwindigkeit 7.59 km/s
Subsatellitenpunkt 51.42°N, 81.81°W
Startdatum 26. Mai 2021
Alter 4.3 years
Typ internet

Technische Details

Klassifizierung Payload
Masse 260.00 kg
Trockenmasse 248.00 kg
Gesamtmasse 260.00 kg
Länge 0.20 m
Durchmesser 2.80 m
Spannweite 9.00 m
Form Box + pan
Hersteller SPXS
Bus-Typ Starlink
Phasenstatus In Orbit
Besitzer/Staat SPXS/US

Große Konstellationen

Loading constellations...